Starlink 32003

operational
NORAD ID: 60097 Int'l Des: 2024-117 Owner: SPXS Country: US Constellation: starlink
LEOCIRCULAR

关于 Starlink 32003

正在加载描述...

实时位置

正在加载3D地球...

即将过境

高度历史

Altitude vs Time

uPlot chart will show altitude changes over time

两行轨道根数

1 60097U 24117G 26036.39401204 .00000626 00000-0 33255-4 0 9993
2 60097 53.1600 187.0050 0000958 102.8869 257.2239 15.30193013 91945
Epoch: Feb 5, 2026 • Age: 8 hours

当前状态

高度 480.4 km
速度 7.63 km/s
星下点 49.66°N, 153.23°W
发射日期 Jun 23, 2024
运行时间 1.6 years
类型 internet

技术详情

分类 Payload
质量 730.00 kg
干质量 700.00 kg
总质量 730.00 kg
长度 0.30 m
直径 4.10 m
跨度 29.00 m
形状 Box + pan
制造商 SPXS
平台类型 Starlink V2M
阶段状态 In Orbit
所有者/国家 SPXS/US

大型星座

Loading constellations...